GW3803 Weather Reports


Display with metric or nautical units.
time (UTC)temp
F
wind
direction
speed
MPH
gust
MPH
rain 1hr
in
rain 24hr
in
rain mn
in
humidity
%
barometer
mb
20240304091350 47 318 5.0 27.0 0.00 0.00 0.00 32 1013.9
20240304090349 47 52 4.0 19.0 0.00 0.00 0.00 32 1014.0
20240304085848 47 70 10.0 19.0 0.00 0.00 0.00 32 1014.1
20240304085348 47 48 6.0 16.0 0.00 0.00 0.00 32 1014.0
20240304084847 47 68 5.0 16.0 0.00 0.00 0.00 32 1014.0
20240304084350 47 83 4.0 16.0 0.00 0.00 0.00 32 1014.1
20240304083345 47 58 2.0 13.0 0.00 0.00 0.00 32 1014.1
20240304082844 47 77 4.0 13.0 0.00 0.00 0.00 32 1014.2
20240304082343 47 47 2.0 16.0 0.00 0.00 0.00 32 1014.2
20240304081843 48 59 4.0 16.0 0.00 0.00 0.00 31 1014.2
20240304081343 48 47 4.0 16.0 0.00 0.00 0.00 31 1014.2
20240304080341 48 94 8.0 19.0 0.00 0.00 0.00 31 1014.4
20240304075840 48 78 7.0 18.0 0.00 0.00 0.00 31 1014.4
20240304075340 48 72 9.0 22.0 0.00 0.00 0.00 31 1014.4
20240304074844 48 76 8.0 22.0 0.00 0.00 0.00 31 1014.4
20240304074339 48 77 8.0 18.0 0.00 0.00 0.00 31 1014.4
20240304073337 48 81 4.0 22.0 0.00 0.00 0.00 30 1014.4
20240304072837 49 62 8.0 19.0 0.00 0.00 0.00 30 1014.4
20240304072337 49 31 8.0 19.0 0.00 0.00 0.00 30 1014.2
20240304071837 49 206 8.0 22.0 0.00 0.00 0.00 30 1014.2
20240304071336 49 80 11.0 23.0 0.00 0.00 0.00 30 1014.2
20240304070334 49 97 10.0 26.0 0.00 0.00 0.00 29 1014.2
20240304065834 49 162 13.0 26.0 0.00 0.00 0.00 29 1014.0
20240304065333 49 60 10.0 36.0 0.00 0.00 0.00 29 1014.1
20240304064837 49 115 11.0 36.0 0.00 0.00 0.00 29 1014.0
20240304064331 49 61 14.0 29.0 0.00 0.00 0.00 29 1014.0
20240304063330 50 85 9.0 31.0 0.00 0.00 0.00 28 1014.0
20240304062830 50 75 14.0 27.0 0.00 0.00 0.00 28 1013.9
20240304062329 50 83 12.0 27.0 0.00 0.00 0.00 28 1013.9
20240304061829 50 97 13.0 29.0 0.00 0.00 0.00 28 1014.0
20240304061328 50 63 8.0 29.0 0.00 0.00 0.00 28 1013.9
20240304060327 50 63 11.0 24.0 0.00 0.00 0.00 28 1014.0
20240304055827 50 14 13.0 24.0 0.00 0.00 0.00 27 1014.0
20240304055326 50 48 11.0 26.0 0.00 0.00 0.00 27 1014.0
20240304054830 50 23 12.0 29.0 0.00 0.00 0.00 27 1014.1
20240304054325 50 76 13.0 29.0 0.00 0.00 0.00 27 1014.1
20240304053324 50 75 12.0 39.0 0.00 0.00 0.00 27 1013.9
20240304052823 50 67 11.0 23.0 0.00 0.00 0.00 27 1014.1
20240304052322 50 42 8.0 25.0 0.00 0.00 0.00 27 1014.1
20240304051821 50 54 9.0 25.0 0.00 0.00 0.00 27 1014.0
20240304051321 50 52 6.0 24.0 0.00 0.00 0.00 27 1013.9
20240304050319 50 46 10.0 20.0 0.00 0.00 0.00 26 1013.9
20240304045819 50 71 7.0 22.0 0.00 0.00 0.00 26 1013.7
20240304045318 51 94 4.0 35.0 0.00 0.00 0.00 26 1013.9
20240304044822 51 6 11.0 35.0 0.00 0.00 0.00 26 1013.7
20240304044317 51 60 10.0 24.0 0.00 0.00 0.00 26 1014.2
20240304043315 51 76 8.0 24.0 0.00 0.00 0.00 26 1013.7
20240304042815 51 77 9.0 32.0 0.00 0.00 0.00 25 1013.9
20240304042315 51 65 13.0 32.0 0.00 0.00 0.00 25 1013.7
20240304041814 51 41 10.0 20.0 0.00 0.00 0.00 25 1013.6
20240304041314 51 224 9.0 24.0 0.00 0.00 0.00 25 1013.6
20240304040312 51 78 6.0 33.0 0.00 0.00 0.00 25 1013.6
20240304035811 51 58 9.0 33.0 0.00 0.00 0.00 25 1013.4
20240304035310 51 79 12.0 23.0 0.00 0.00 0.00 25 1013.9
20240304034814 51 73 11.0 29.0 0.00 0.00 0.00 25 1013.9
20240304034309 51 23 11.0 29.0 0.00 0.00 0.00 25 1013.9
20240304033308 51 43 8.0 23.0 0.00 0.00 0.00 25 1014.1
20240304032808 50 73 9.0 23.0 0.00 0.00 0.00 25 1014.2
20240304032307 50 87 10.0 23.0 0.00 0.00 0.00 26 1014.4
20240304031806 50 33 6.0 27.0 0.00 0.00 0.00 26 1014.5
20240304031305 49 71 7.0 27.0 0.00 0.00 0.00 27 1014.5
20240304030304 48 79 4.0 18.0 0.00 0.00 0.00 27 1014.6
20240304025804 48 77 4.0 18.0 0.00 0.00 0.00 27 1014.7
20240304025306 48 65 2.0 9.0 0.00 0.00 0.00 28 1014.7
20240304024803 48 275 4.0 8.0 0.00 0.00 0.00 28 1014.7
20240304024302 48 335 2.0 6.0 0.00 0.00 0.00 28 1014.7
20240304023300 48 296 3.0 4.0 0.00 0.00 0.00 28 1014.7
20240304022800 48 340 2.0 5.0 0.00 0.00 0.00 28 1014.9
20240304022300 48 354 0.0 6.0 0.00 0.00 0.00 28 1014.9
20240304021800 48 316 2.0 6.0 0.00 0.00 0.00 28 1014.9
20240304021258 47 293 1.0 6.0 0.00 0.00 0.00 28 1014.6
20240304020252 49 75 1.0 8.0 0.00 0.00 0.00 27 1014.6
20240304015751 49 22 2.0 9.0 0.00 0.00 0.00 27 1014.2
20240304015250 49 81 0.0 12.0 0.00 0.00 0.00 27 1014.1
20240304014751 49 53 3.0 12.0 0.00 0.00 0.00 27 1014.1
20240304014250 49 325 1.0 5.0 0.00 0.00 0.00 27 1014.1
20240304013249 49 78 1.0 6.0 0.00 0.00 0.00 27 1014.0
20240304012748 49 279 2.0 5.0 0.00 0.00 0.00 27 1014.0
20240304012248 50 18 0.0 4.0 0.00 0.00 0.00 26 1014.0
20240304011742 50 49 1.0 12.0 0.00 0.00 0.00 26 1013.9
20240304011232 51 55 4.0 12.0 0.00 0.00 0.00 25 1013.7
20240304010231 51 73 1.0 6.0 0.00 0.00 0.00 25 1013.7
20240304005730 51 69 2.0 8.0 0.00 0.00 0.00 25 1013.5
20240304005229 52 65 2.0 8.0 0.00 0.00 0.00 24 1013.7
20240304004729 52 71 4.0 9.0 0.00 0.00 0.00 24 1013.6
20240304004229 52 42 3.0 9.0 0.00 0.00 0.00 24 1013.6
20240304003232 53 358 2.0 10.0 0.00 0.00 0.00 23 1013.6
20240304002727 54 343 4.0 21.0 0.00 0.00 0.00 22 1013.6
20240304002226 55 100 9.0 21.0 0.00 0.00 0.00 22 1013.7
20240304001725 55 61 1.0 14.0 0.00 0.00 0.00 22 1013.6
20240304001224 56 114 6.0 14.0 0.00 0.00 0.00 21 1013.6
20240304000226 57 55 1.0 9.0 0.00 0.00 0.00 20 1013.5
20240303235723 57 332 0.0 9.0 0.00 0.00 0.00 21 1013.4
20240303235223 57 335 0.0 12.0 0.00 0.00 0.00 21 1013.4
20240303234722 57 75 4.0 12.0 0.00 0.00 0.00 20 1013.6
20240303234217 57 67 2.0 16.0 0.00 0.00 0.00 20 1013.5
20240303233216 57 262 6.0 26.0 0.00 0.00 0.00 20 1013.5
20240303232716 58 61 9.0 26.0 0.00 0.00 0.00 19 1013.2
20240303232215 58 75 8.0 16.0 0.00 0.00 0.00 19 1013.4
20240303231714 58 82 5.0 20.0 0.00 0.00 0.00 19 1013.5
20240303231213 59 57 7.0 20.0 0.00 0.00 0.00 19 1013.4
20240303230212 58 53 4.0 15.0 0.00 0.00 0.00 20 1013.5
20240303225711 58 69 6.0 13.0 0.00 0.00 0.00 19 1013.5
20240303225216 58 75 2.0 12.0 0.00 0.00 0.00 19 1013.6
20240303224711 59 86 7.0 14.0 0.00 0.00 0.00 19 1013.6
20240303224210 59 38 5.0 14.0 0.00 0.00 0.00 19 1013.6
20240303223209 59 69 6.0 15.0 0.00 0.00 0.00 19 1013.6
20240303222708 59 106 6.0 20.0 0.00 0.00 0.00 19 1013.5
20240303222207 60 86 5.0 20.0 0.00 0.00 0.00 18 1013.4
20240303221707 60 69 2.0 11.0 0.00 0.00 0.00 18 1013.4
20240303221206 60 106 3.0 11.0 0.00 0.00 0.00 20 1013.5
20240303220205 59 76 5.0 21.0 0.00 0.00 0.00 19 1013.6
20240303215705 59 79 6.0 21.0 0.00 0.00 0.00 19 1013.4
20240303215207 60 81 5.0 12.0 0.00 0.00 0.00 19 1013.5
20240303214704 59 225 5.0 12.0 0.00 0.00 0.00 19 1013.4
20240303214202 60 83 5.0 20.0 0.00 0.00 0.00 19 1013.4
20240303213201 60 64 5.0 18.0 0.00 0.00 0.00 19 1013.2
20240303212701 60 223 6.0 24.0 0.00 0.00 0.00 18 1013.4
20240303212200 60 69 5.0 26.0 0.00 0.00 0.00 18 1013.2
20240303211700 60 70 9.0 26.0 0.00 0.00 0.00 18 1013.2
20240303211158 60 81 5.0 15.0 0.00 0.00 0.00 18 1013.5
20240303210158 61 161 3.0 15.0 0.00 0.00 0.00 18 1013.4
20240303205657 60 89 7.0 15.0 0.00 0.00 0.00 18 1013.2
20240303205200 62 130 4.0 10.0 0.00 0.00 0.00 18 1013.6
20240303204655 61 84 2.0 14.0 0.00 0.00 0.00 18 1013.4
20240303204155 60 194 5.0 14.0 0.00 0.00 0.00 19 1013.5
20240303203154 59 67 10.0 24.0 0.00 0.00 0.00 18 1013.6
20240303202654 60 187 5.0 17.0 0.00 0.00 0.00 18 1013.7
20240303202152 60 85 4.0 17.0 0.00 0.00 0.00 19 1014.0
20240303201652 59 90 9.0 20.0 0.00 0.00 0.00 19 1014.0
20240303201151 59 77 11.0 23.0 0.00 0.00 0.00 19 1014.1
20240303200150 59 63 6.0 18.0 0.00 0.00 0.00 19 1014.4
20240303195649 60 167 7.0 17.0 0.00 0.00 0.00 19 1014.5
20240303195152 59 139 6.0 17.0 0.00 0.00 0.00 19 1014.4
20240303194648 59 69 7.0 16.0 0.00 0.00 0.00 19 1014.4
20240303194147 59 37 7.0 17.0 0.00 0.00 0.00 19 1014.5
20240303193146 59 164 5.0 20.0 0.00 0.00 0.00 19 1014.6
20240303192646 59 254 6.0 18.0 0.00 0.00 0.00 19 1014.4
20240303192145 58 73 6.0 18.0 0.00 0.00 0.00 19 1014.6
20240303191644 57 191 8.0 21.0 0.00 0.00 0.00 20 1014.5
20240303191143 56 70 12.0 22.0 0.00 0.00 0.00 20 1014.6
20240303190142 57 65 8.0 17.0 0.00 0.00 0.00 20 1014.5
20240303185642 57 94 4.0 22.0 0.00 0.00 0.00 19 1014.6
20240303185146 57 104 9.0 22.0 0.00 0.00 0.00 19 1014.5
20240303184641 57 84 10.0 20.0 0.00 0.00 0.00 19 1014.6
20240303184140 58 110 8.0 20.0 0.00 0.00 0.00 19 1014.7
20240303183139 59 108 9.0 21.0 0.00 0.00 0.00 19 1014.6
20240303182638 58 62 6.0 18.0 0.00 0.00 0.00 19 1014.4
20240303182137 58 85 7.0 23.0 0.00 0.00 0.00 19 1014.4
20240303181637 58 87 9.0 23.0 0.00 0.00 0.00 18 1014.0
20240303181136 58 54 10.0 27.0 0.00 0.00 0.00 18 1014.5
20240303180135 58 53 11.0 27.0 0.00 0.00 0.00 18 1014.0
20240303175633 58 222 8.0 30.0 0.00 0.00 0.00 19 1014.0
20240303175137 58 72 14.0 30.0 0.00 0.00 0.00 18 1013.7
20240303174632 58 49 11.0 23.0 0.00 0.00 0.00 18 1013.6
20240303174131 58 63 6.0 21.0 0.00 0.00 0.00 18 1013.6
20240303173130 58 90 5.0 20.0 0.00 0.00 0.00 18 1013.2
20240303172630 58 69 6.0 21.0 0.00 0.00 0.00 18 1013.2
20240303172129 57 207 8.0 21.0 0.00 0.00 0.00 18 1013.2
20240303171629 57 84 6.0 25.0 0.00 0.00 0.00 19 1013.1
20240303171128 56 92 13.0 25.0 0.00 0.00 0.00 19 1013.1
20240303170127 56 69 8.0 30.0 0.00 0.00 0.00 18 1013.1
20240303165625 56 95 9.0 30.0 0.00 0.00 0.00 18 1012.9
20240303165129 56 73 12.0 19.0 0.00 0.00 0.00 18 1013.0
20240303164625 56 120 7.0 25.0 0.00 0.00 0.00 18 1013.1
20240303164123 56 83 13.0 25.0 0.00 0.00 0.00 17 1013.1
20240303163122 56 89 9.0 26.0 0.00 0.00 0.00 19 1013.2
20240303162621 56 62 6.0 30.0 0.00 0.00 0.00 18 1013.2
20240303162121 55 100 7.0 30.0 0.00 0.00 0.00 18 1013.1
20240303161620 54 154 6.0 25.0 0.00 0.00 0.00 18 1013.0
20240303161119 54 113 8.0 25.0 0.00 0.00 0.00 18 1013.0
20240303160118 53 77 12.0 28.0 0.00 0.00 0.00 17 1013.0
20240303155617 53 28 6.0 34.0 0.00 0.00 0.00 17 1012.9
20240303155121 53 61 16.0 34.0 0.00 0.00 0.00 17 1012.6
20240303154616 53 13 13.0 36.0 0.00 0.00 0.00 17 1012.5
20240303154115 53 52 10.0 36.0 0.00 0.00 0.00 17 1012.5
20240303153113 52 286 11.0 29.0 0.00 0.00 0.00 18 1012.5
20240303152613 51 73 10.0 42.0 0.00 0.00 0.00 18 1012.5
20240303152111 51 167 13.0 42.0 0.00 0.00 0.00 18 1012.2
20240303151612 51 77 12.0 37.0 0.00 0.00 0.00 18 1012.6
20240303151111 51 85 17.0 34.0 0.00 0.00 0.00 18 1012.2
20240303150109 50 94 10.0 42.0 0.00 0.00 0.00 18 1012.6
20240303145608 50 78 14.0 42.0 0.00 0.00 0.00 19 1012.5
20240303145112 50 231 14.0 42.0 0.00 0.00 0.00 19 1012.4
20240303144607 49 77 12.0 28.0 0.00 0.00 0.00 19 1012.6
20240303144106 49 243 8.0 31.0 0.00 0.00 0.00 19 1012.6
20240303143105 49 8 11.0 35.0 0.00 0.00 0.00 18 1012.9
20240303142605 49 74 16.0 35.0 0.00 0.00 0.00 18 1012.9
20240303142103 49 69 11.0 34.0 0.00 0.00 0.00 19 1012.6
20240303141603 48 72 11.0 29.0 0.00 0.00 0.00 19 1012.5
20240303141103 48 66 12.0 34.0 0.00 0.00 0.00 19 1012.6
20240303140102 47 93 13.0 36.0 0.00 0.00 0.00 19 1012.7
20240303135601 47 189 11.0 36.0 0.00 0.00 0.00 19 1012.6
20240303135105 47 77 10.0 28.0 0.00 0.00 0.00 19 1012.7
20240303134600 47 92 11.0 28.0 0.00 0.00 0.00 19 1012.9
20240303134059 46 117 15.0 49.0 0.00 0.00 0.00 18 1012.7
20240303133057 46 141 13.0 36.0 0.00 0.00 0.00 19 1013.0
20240303132557 46 83 13.0 29.0 0.00 0.00 0.00 19 1012.9
20240303132056 46 62 6.0 34.0 0.00 0.00 0.00 19 1013.0
20240303131556 46 75 12.0 34.0 0.00 0.00 0.00 20 1013.1
20240303131054 46 89 8.0 26.0 0.00 0.00 0.00 20 1013.2
20240303130053 46 79 11.0 26.0 0.00 0.00 0.00 19 1013.1
20240303125552 46 98 8.0 22.0 0.00 0.00 0.00 19 1012.9
20240303125056 46 60 9.0 25.0 0.00 0.00 0.00 19 1013.0
20240303124551 46 77 10.0 26.0 0.00 0.00 0.00 20 1013.0
20240303124051 46 83 8.0 26.0 0.00 0.00 0.00 19 1013.4
20240303123048 47 67 10.0 31.0 0.00 0.00 0.00 18 1013.2
20240303122548 47 51 9.0 33.0 0.00 0.00 0.00 19 1012.9
20240303122047 47 103 11.0 33.0 0.00 0.00 0.00 18 1013.1
20240303121547 47 294 12.0 29.0 0.00 0.00 0.00 18 1012.9
20240303121046 47 94 9.0 29.0 0.00 0.00 0.00 19 1013.1
20240303120045 47 99 10.0 28.0 0.00 0.00 0.00 19 1013.0
20240303115544 47 59 9.0 28.0 0.00 0.00 0.00 18 1013.1
20240303115048 47 262 10.0 26.0 0.00 0.00 0.00 18 1013.1
20240303114543 47 103 9.0 28.0 0.00 0.00 0.00 18 1013.0
20240303114042 47 77 10.0 28.0 0.00 0.00 0.00 18 1013.2
20240303113041 47 77 10.0 23.0 0.00 0.00 0.00 18 1013.2
20240303112541 47 75 7.0 23.0 0.00 0.00 0.00 18 1013.2
20240303112039 47 37 7.0 25.0 0.00 0.00 0.00 18 1013.1
20240303111539 47 61 6.0 25.0 0.00 0.00 0.00 18 1013.2
20240303111038 47 71 9.0 23.0 0.00 0.00 0.00 17 1012.7
20240303110037 47 60 10.0 29.0 0.00 0.00 0.00 17 1013.1
20240303105537 47 358 13.0 29.0 0.00 0.00 0.00 18 1013.1
20240303105041 47 104 13.0 27.0 0.00 0.00 0.00 17 1013.2
20240303104535 47 86 13.0 27.0 0.00 0.00 0.00 19 1013.2
20240303104035 47 64 14.0 23.0 0.00 0.00 0.00 18 1013.4
20240303103033 46 69 15.0 25.0 0.00 0.00 0.00 18 1013.4
20240303102533 46 89 9.0 23.0 0.00 0.00 0.00 19 1013.4
20240303102032 46 88 8.0 28.0 0.00 0.00 0.00 19 1013.6
20240303101532 46 73 10.0 28.0 0.00 0.00 0.00 19 1013.4
20240303101031 46 69 8.0 29.0 0.00 0.00 0.00 20 1013.6
20240303100029 46 108 11.0 33.0 0.00 0.00 0.00 20 1013.6
20240303095529 46 73 15.0 33.0 0.00 0.00 0.00 20 1013.6
20240303095032 46 83 16.0 28.0 0.00 0.00 0.00 21 1013.6
20240303094528 46 78 13.0 29.0 0.00 0.00 0.00 21 1013.7
20240303094027 46 77 10.0 30.0 0.00 0.00 0.00 21 1013.9
20240303093026 46 78 10.0 32.0 0.00 0.00 0.00 21 1013.6
20240303092525 47 69 13.0 32.0 0.00 0.00 0.00 21 1014.0
20240303092024 47 77 13.0 24.0 0.00 0.00 0.00 21 1013.9